Chilhowee Lake Weather Center

Moon Phase Calendar



Chilhowee Lake Water Level
Online Cameras

 


      

Current Conditions in Halfway Town (historical)
5/16/2021 12:01:05 PM

72°F
Feels Like 71
Clear
Humidity
46%
Pressure
30.27"
Wind
4.6 mph (W)
Dew Point
50°F
UV Index
2/10 (Low)
Visibility
6 mi

Hourly Forecast

Date & Time Sun, May 16
12:00 PM
Sun, May 16
1:00 PM
Sun, May 16
2:00 PM
Sun, May 16
3:00 PM
Sun, May 16
4:00 PM
Sun, May 16
5:00 PM
Sun, May 16
6:00 PM
Sun, May 16
7:00 PM
Sun, May 16
8:00 PM
Sun, May 16
9:00 PM
Sun, May 16
10:00 PM
Sun, May 16
11:00 PM
Mon, May 17
12:00 AM
Mon, May 17
1:00 AM
Mon, May 17
2:00 AM
Mon, May 17
3:00 AM
Mon, May 17
4:00 AM
Mon, May 17
5:00 AM
Mon, May 17
6:00 AM
Mon, May 17
7:00 AM
Mon, May 17
8:00 AM
Mon, May 17
9:00 AM
Mon, May 17
10:00 AM
Mon, May 17
11:00 AM
Mon, May 17
12:00 PM
Mon, May 17
1:00 PM
Mon, May 17
2:00 PM
Mon, May 17
3:00 PM
Mon, May 17
4:00 PM
Mon, May 17
5:00 PM
Mon, May 17
6:00 PM
Mon, May 17
7:00 PM
Mon, May 17
8:00 PM
Mon, May 17
9:00 PM
Mon, May 17
10:00 PM
Mon, May 17
11:00 PM
Tue, May 18
12:00 AM
Tue, May 18
1:00 AM
Tue, May 18
2:00 AM
Tue, May 18
3:00 AM
Tue, May 18
4:00 AM
Tue, May 18
5:00 AM
Tue, May 18
6:00 AM
Tue, May 18
7:00 AM
Tue, May 18
8:00 AM
Tue, May 18
9:00 AM
Tue, May 18
10:00 AM
Tue, May 18
11:00 AM
Condition
Clear

Clouds

Clouds

Clouds

Rain

Clouds

Clouds

Clouds

Clouds

Clouds

Clouds

Clouds

Clouds

Clouds

Clouds

Clouds

Clouds

Clouds

Clouds

Clouds

Clouds

Clouds

Clouds

Clouds

Clouds

Clouds

Clouds

Clouds

Clouds

Clouds

Clouds

Clouds

Clouds

Clouds

Clouds

Clouds

Clouds

Clouds

Clouds

Clouds

Clouds

Clouds

Clouds

Clouds

Clouds

Clouds

Clouds

Clouds
Temperature 72°F70°F69°F70°F65°F62°F63°F63°F63°F60°F59°F58°F59°F60°F60°F58°F59°F61°F58°F58°F62°F66°F69°F73°F74°F73°F73°F74°F75°F76°F75°F73°F67°F65°F64°F63°F61°F61°F61°F60°F60°F59°F59°F59°F62°F65°F66°F68°F
Feels Like 71°F69°F68°F70°F65°F62°F63°F63°F63°F60°F58°F58°F58°F60°F59°F58°F59°F60°F57°F58°F62°F66°F68°F73°F74°F72°F73°F73°F74°F75°F75°F73°F67°F65°F64°F62°F61°F60°F60°F60°F59°F59°F58°F59°F62°F65°F66°F68°F
Cloudiness 1%21%40%53%75%96%97%97%97%100%97%94%95%96%97%100%96%97%97%98%98%100%100%100%100%100%100%100%100%100%100%100%99%100%100%100%100%100%100%100%100%100%100%100%100%100%100%100%
Visibility 6 mi6 mi6 mi6 mi6 mi6 mi6 mi6 mi6 mi6 mi6 mi6 mi6 mi6 mi6 mi6 mi6 mi6 mi6 mi6 mi6 mi6 mi6 mi6 mi6 mi6 mi6 mi6 mi6 mi6 mi6 mi6 mi6 mi6 mi6 mi6 mi6 mi6 mi6 mi6 mi6 mi6 mi6 mi6 mi6 mi6 mi6 mi6 mi
Precipitation 1%2%2%14%21%0%0%0%0%0%0%0%0%0%0%0%0%0%0%0%0%0%0%0%0%0%4%8%8%8%8%8%4%0%0%0%0%0%0%0%0%0%0%0%0%0%4%8%
Humidity 46%53%57%54%75%85%84%82%84%86%90%89%88%83%84%86%82%79%85%85%81%70%65%55%51%52%52%51%49%48%49%64%74%73%73%76%78%78%77%78%79%81%83%83%81%78%77%69%
Dew Point 50°F52°F53°F53°F57°F56°F56°F56°F56°F54°F54°F53°F53°F53°F53°F52°F52°F52°F51°F52°F54°F54°F54°F54°F53°F53°F53°F53°F53°F53°F53°F58°F57°F55°F54°F53°F52°F52°F52°F52°F51°F51°F51°F52°F54°F56°F57°F56°F
Pressure 30.27"30.27"30.27"30.24"30.21"30.18"30.18"30.18"30.18"30.18"30.21"30.21"30.18"30.18"30.15"30.15"30.15"30.15"30.18"30.18"30.18"30.21"30.21"30.18"30.18"30.18"30.15"30.15"30.15"30.12"30.12"30.12"30.15"30.18"30.18"30.18"30.21"30.18"30.18"30.18"30.18"30.18"30.18"30.21"30.24"30.24"30.24"30.24"
Wind Speed 2.9 mph3.5 mph3.9 mph4 mph0.4 mph3.4 mph3.7 mph3.8 mph3.2 mph4 mph3.7 mph4.3 mph4.5 mph4.4 mph4.4 mph4.3 mph3.4 mph3.2 mph3.3 mph4.2 mph3.2 mph1.9 mph2 mph3.2 mph6.3 mph5.9 mph4.8 mph4.6 mph4.6 mph4.2 mph4 mph3.2 mph3.5 mph4.2 mph5 mph5.5 mph5.8 mph6 mph6 mph6.1 mph6 mph6 mph5.8 mph5 mph4.4 mph3.3 mph3.1 mph1.9 mph
Wind
Direction
185°
S
181°
S
182°
S
214°
SW
214°
SW
117°
ESE
130°
SE
134°
SE
127°
SE
135°
SE
155°
SSE
141°
SE
136°
SE
133°
SE
134°
SE
142°
SE
143°
SE
145°
SE
156°
SSE
138°
SE
140°
SE
153°
SSE
220°
SW
236°
SW
250°
WSW
236°
SW
212°
SSW
201°
SSW
189°
S
190°
S
202°
SSW
200°
SSW
164°
SSE
152°
SSE
128°
SE
134°
SE
131°
SE
133°
SE
132°
SE
132°
SE
132°
SE
132°
SE
127°
SE
130°
SE
124°
SE
131°
SE
119°
ESE
125°
SE

Daily Forecast

Date High Low Precip. Humidity
Today
May 16

Rain
72 °F
56 °F
21%
53%
Monday
May 17

Clouds
76 °F
58 °F
8%
52%
Tuesday
May 18

Rain
68 °F
59 °F
100%
87%
Wednesday
May 19

Rain
78 °F
59 °F
52%
52%
Thursday
May 20

Clouds
83 °F
60 °F
0%
40%
Friday
May 21

Clouds
86 °F
59 °F
0%
33%
Saturday
May 22

Clouds
83 °F
62 °F
0%
42%
Sunday
May 23

Clouds
85 °F
63 °F
21%
46%
Monday
May 24

Rain
86 °F
67 °F
32%
48%
Tuesday
May 25

Rain
78 °F
65 °F
96%
97%
Wednesday
May 26

Clouds
76 °F
57 °F
0%
48%
Thursday
May 27

Clear
81 °F
54 °F
0%
39%
Friday
May 28

Rain
86 °F
61 °F
58%
55%
Saturday
May 29

Rain
84 °F
69 °F
81%
81%
Sunday
May 30

Rain
77 °F
70 °F
100%
92%
Monday
May 31

Rain
86 °F
65 °F
84%
50%

Temperature 8-14 Day Outlook



Precipitation 8-14 Day Outlook




Quick Links
Chilhowee Lake News
Chilhowee Lake Photos
Chilhowee Lake Videos




About Us
Contact Us
Site Map
Search Site
Advertise With Us
   
Chilhowee.LakesOnline.com
THE CHILHOWEE LAKE WEBSITE

Copyright 2021, Lakes Online
Privacy    |    Legal